| time (UTC) | temp F | wind direction | speed MPH | gust MPH | rain 1hr in | rain 24hr in | rain mn in | humidity % | barometer mb |
| 20260903213059 | 60 | 278 | 1.0 | 8.0 | 0.00 | 0.00 | 0.00 | 86 | 1018.6 |
| 20260903212557 | 60 | 271 | 0.0 | 1.0 | 0.00 | 0.00 | 0.00 | 86 | 1018.6 |
| 20260903212053 | 60 | 225 | 0.0 | 2.0 | 0.00 | 0.00 | 0.00 | 85 | 1018.4 |
| 20260903211655 | 60 | 198 | 0.0 | 7.0 | 0.00 | 0.00 | 0.00 | 85 | 1018.4 |
| 20260903211052 | 61 | 253 | 2.0 | 7.0 | 0.00 | 0.00 | 0.00 | 85 | 1018.5 |
| 20260903210552 | 61 | 211 | 2.0 | 8.0 | 0.00 | 0.00 | 0.00 | 84 | 1018.3 |
| 20260903210059 | 61 | 252 | 3.0 | 8.0 | 0.00 | 0.00 | 0.00 | 84 | 1018.5 |
| 20260903205551 | 61 | 232 | 2.0 | 7.0 | 0.00 | 0.00 | 0.00 | 84 | 1018.6 |
| 20260903205051 | 61 | 275 | 2.0 | 8.0 | 0.00 | 0.00 | 0.00 | 84 | 1018.6 |
| 20260903204551 | 61 | 191 | 2.0 | 9.0 | 0.00 | 0.00 | 0.00 | 84 | 1018.6 |
| 20260903204051 | 61 | 191 | 3.0 | 9.0 | 0.00 | 0.00 | 0.00 | 84 | 1018.5 |
| 20260903203551 | 61 | 236 | 2.0 | 9.0 | 0.00 | 0.00 | 0.00 | 84 | 1018.6 |
| 20260903203113 | 61 | 279 | 2.0 | 10.0 | 0.00 | 0.00 | 0.00 | 84 | 1018.6 |
| 20260903202550 | 61 | 252 | 3.0 | 10.0 | 0.00 | 0.00 | 0.00 | 83 | 1018.5 |
| 20260903202050 | 61 | 161 | 3.0 | 9.0 | 0.00 | 0.00 | 0.00 | 83 | 1018.5 |
| 20260903201550 | 61 | 208 | 2.0 | 10.0 | 0.00 | 0.00 | 0.00 | 83 | 1018.6 |
| 20260903201049 | 61 | 162 | 3.0 | 10.0 | 0.00 | 0.00 | 0.00 | 83 | 1018.6 |
| 20260903200551 | 61 | 225 | 2.0 | 6.0 | 0.00 | 0.00 | 0.00 | 84 | 1018.6 |
| 20260903200049 | 61 | 234 | 3.0 | 8.0 | 0.00 | 0.00 | 0.00 | 84 | 1018.7 |
| 20260903195553 | 61 | 220 | 2.0 | 8.0 | 0.00 | 0.00 | 0.00 | 84 | 1018.7 |
| 20260903195049 | 61 | 244 | 1.0 | 8.0 | 0.00 | 0.00 | 0.00 | 84 | 1018.7 |
| 20260903194651 | 61 | 150 | 2.0 | 8.0 | 0.00 | 0.00 | 0.00 | 84 | 1018.7 |
| 20260903194048 | 61 | 225 | 3.0 | 8.0 | 0.00 | 0.00 | 0.00 | 85 | 1019.0 |
| 20260903193549 | 61 | 209 | 2.0 | 10.0 | 0.00 | 0.00 | 0.00 | 85 | 1018.8 |
| 20260903193047 | 61 | 236 | 2.0 | 10.0 | 0.00 | 0.00 | 0.00 | 85 | 1018.7 |
| 20260903192549 | 61 | 229 | 2.0 | 9.0 | 0.00 | 0.00 | 0.00 | 84 | 1018.6 |
| 20260903192046 | 61 | 200 | 3.0 | 10.0 | 0.00 | 0.00 | 0.00 | 85 | 1018.7 |
| 20260903191550 | 61 | 227 | 5.0 | 12.0 | 0.00 | 0.00 | 0.00 | 85 | 1018.8 |
| 20260903191046 | 61 | 281 | 2.0 | 12.0 | 0.00 | 0.00 | 0.00 | 86 | 1018.8 |
| 20260903190550 | 61 | 236 | 3.0 | 8.0 | 0.00 | 0.00 | 0.00 | 86 | 1018.8 |
| 20260903190047 | 61 | 311 | 2.0 | 10.0 | 0.00 | 0.00 | 0.00 | 87 | 1018.7 |
| 20260903185550 | 61 | 229 | 1.0 | 7.0 | 0.00 | 0.00 | 0.00 | 87 | 1018.7 |
| 20260903185046 | 61 | 184 | 3.0 | 9.0 | 0.00 | 0.00 | 0.00 | 87 | 1018.8 |
| 20260903184546 | 61 | 184 | 4.0 | 13.0 | 0.00 | 0.00 | 0.00 | 87 | 1018.8 |
| 20260903184048 | 61 | 184 | 2.0 | 13.0 | 0.00 | 0.00 | 0.00 | 87 | 1018.8 |
| 20260903183544 | 61 | 232 | 3.0 | 11.0 | 0.00 | 0.00 | 0.00 | 86 | 1018.9 |
| 20260903183047 | 61 | 268 | 4.0 | 11.0 | 0.00 | 0.00 | 0.00 | 86 | 1018.8 |
| 20260903182545 | 61 | 231 | 4.0 | 11.0 | 0.00 | 0.00 | 0.00 | 86 | 1018.9 |
| 20260903182046 | 61 | 266 | 3.0 | 11.0 | 0.00 | 0.00 | 0.00 | 85 | 1018.9 |
| 20260903181545 | 61 | 267 | 3.0 | 11.0 | 0.00 | 0.00 | 0.00 | 85 | 1018.8 |
| 20260903181047 | 61 | 160 | 4.0 | 11.0 | 0.00 | 0.00 | 0.00 | 84 | 1018.9 |
| 20260903180544 | 61 | 223 | 3.0 | 10.0 | 0.00 | 0.00 | 0.00 | 84 | 1018.9 |
| 20260903180043 | 61 | 255 | 2.0 | 7.0 | 0.00 | 0.00 | 0.00 | 83 | 1018.7 |
| 20260903175548 | 61 | 180 | 2.0 | 6.0 | 0.00 | 0.00 | 0.00 | 83 | 1018.7 |
| 20260903175043 | 61 | 209 | 2.0 | 6.0 | 0.00 | 0.00 | 0.00 | 83 | 1018.7 |
| 20260903174543 | 62 | 215 | 1.0 | 8.0 | 0.00 | 0.00 | 0.00 | 83 | 1018.7 |
| 20260903174046 | 62 | 274 | 2.0 | 12.0 | 0.00 | 0.00 | 0.00 | 83 | 1018.7 |
| 20260903173544 | 61 | 223 | 2.0 | 13.0 | 0.00 | 0.00 | 0.00 | 83 | 1018.7 |
| 20260903173042 | 61 | 267 | 4.0 | 10.0 | 0.00 | 0.00 | 0.00 | 83 | 1018.7 |
| 20260903172542 | 61 | 186 | 2.0 | 7.0 | 0.00 | 0.00 | 0.00 | 83 | 1018.7 |
| 20260903172041 | 61 | 239 | 1.0 | 5.0 | 0.00 | 0.00 | 0.00 | 83 | 1018.7 |
| 20260903171557 | 62 | 228 | 0.0 | 10.0 | 0.00 | 0.00 | 0.00 | 83 | 1018.7 |
| 20260903171043 | 62 | 277 | 2.0 | 10.0 | 0.00 | 0.00 | 0.00 | 82 | 1018.7 |
| 20260903170542 | 62 | 250 | 2.0 | 9.0 | 0.00 | 0.00 | 0.00 | 82 | 1018.7 |
| 20260903170042 | 62 | 223 | 2.0 | 10.0 | 0.00 | 0.00 | 0.00 | 82 | 1018.6 |
| 20260903165541 | 62 | 212 | 3.0 | 11.0 | 0.00 | 0.00 | 0.00 | 82 | 1018.6 |
| 20260903165041 | 62 | 225 | 4.0 | 16.0 | 0.00 | 0.00 | 0.00 | 83 | 1018.7 |
| 20260903164558 | 61 | 315 | 3.0 | 11.0 | 0.00 | 0.00 | 0.00 | 84 | 1018.8 |
| 20260903164041 | 61 | 261 | 3.0 | 10.0 | 0.00 | 0.00 | 0.00 | 84 | 1018.9 |
| 20260903163541 | 62 | 227 | 3.0 | 10.0 | 0.00 | 0.00 | 0.00 | 83 | 1018.8 |
| 20260903163040 | 62 | 239 | 3.0 | 7.0 | 0.00 | 0.00 | 0.00 | 83 | 1018.8 |
| 20260903162540 | 63 | 227 | 1.0 | 7.0 | 0.00 | 0.00 | 0.00 | 81 | 1018.7 |
| 20260903162040 | 63 | 230 | 2.0 | 5.0 | 0.00 | 0.00 | 0.00 | 80 | 1018.6 |
| 20260903161540 | 64 | 268 | 2.0 | 6.0 | 0.00 | 0.00 | 0.00 | 78 | 1018.7 |
| 20260903161039 | 64 | 202 | 2.0 | 6.0 | 0.00 | 0.00 | 0.00 | 76 | 1018.6 |
| 20260903160539 | 64 | 217 | 1.0 | 5.0 | 0.00 | 0.00 | 0.00 | 75 | 1018.6 |
| 20260903160041 | 64 | 192 | 1.0 | 5.0 | 0.00 | 0.00 | 0.00 | 75 | 1018.6 |
| 20260903155538 | 64 | 230 | 1.0 | 5.0 | 0.00 | 0.00 | 0.00 | 75 | 1018.6 |
| 20260903155039 | 64 | 250 | 1.0 | 7.0 | 0.00 | 0.00 | 0.00 | 76 | 1018.6 |
| 20260903154547 | 64 | 222 | 2.0 | 7.0 | 0.00 | 0.00 | 0.00 | 76 | 1018.6 |
| 20260903154041 | 64 | 221 | 0.0 | 5.0 | 0.00 | 0.00 | 0.00 | 74 | 1018.7 |
| 20260903153537 | 64 | 228 | 2.0 | 4.0 | 0.00 | 0.00 | 0.00 | 74 | 1018.7 |
| 20260903153038 | 65 | 277 | 2.0 | 5.0 | 0.00 | 0.00 | 0.00 | 74 | 1018.7 |
| 20260903152538 | 65 | 216 | 2.0 | 6.0 | 0.00 | 0.00 | 0.00 | 74 | 1018.7 |
| 20260903152041 | 65 | 192 | 2.0 | 6.0 | 0.00 | 0.00 | 0.00 | 73 | 1018.6 |
| 20260903151538 | 65 | 228 | 1.0 | 9.0 | 0.00 | 0.00 | 0.00 | 73 | 1018.7 |
| 20260903151037 | 65 | 227 | 2.0 | 9.0 | 0.00 | 0.00 | 0.00 | 73 | 1018.6 |
| 20260903150537 | 65 | 234 | 2.0 | 5.0 | 0.00 | 0.00 | 0.00 | 73 | 1018.6 |
| 20260903150038 | 65 | 265 | 1.0 | 8.0 | 0.00 | 0.00 | 0.00 | 74 | 1018.5 |
| 20260903145536 | 65 | 238 | 2.0 | 8.0 | 0.00 | 0.00 | 0.00 | 72 | 1018.6 |
| 20260903145036 | 65 | 255 | 1.0 | 10.0 | 0.00 | 0.00 | 0.00 | 73 | 1018.8 |
| 20260903144543 | 65 | 298 | 3.0 | 7.0 | 0.00 | 0.00 | 0.00 | 72 | 1018.8 |
| 20260903144038 | 65 | 275 | 2.0 | 7.0 | 0.00 | 0.00 | 0.00 | 72 | 1018.7 |
| 20260903143534 | 65 | 235 | 2.0 | 8.0 | 0.00 | 0.00 | 0.00 | 72 | 1018.7 |
| 20260903143044 | 65 | 277 | 3.0 | 9.0 | 0.00 | 0.00 | 0.00 | 72 | 1018.7 |
| 20260903142535 | 66 | 233 | 2.0 | 9.0 | 0.00 | 0.00 | 0.00 | 71 | 1018.8 |
| 20260903142035 | 66 | 225 | 3.0 | 10.0 | 0.00 | 0.00 | 0.00 | 70 | 1018.8 |
| 20260903141535 | 67 | 283 | 3.0 | 7.0 | 0.00 | 0.00 | 0.00 | 69 | 1018.7 |
| 20260903141036 | 67 | 235 | 2.0 | 7.0 | 0.00 | 0.00 | 0.00 | 69 | 1018.8 |
| 20260903140534 | 68 | 271 | 3.0 | 10.0 | 0.00 | 0.00 | 0.00 | 67 | 1018.7 |
| 20260903140041 | 68 | 189 | 4.0 | 10.0 | 0.00 | 0.00 | 0.00 | 66 | 1018.7 |
| 20260903135534 | 68 | 273 | 3.0 | 7.0 | 0.00 | 0.00 | 0.00 | 69 | 1018.6 |
| 20260903135035 | 68 | 248 | 2.0 | 9.0 | 0.00 | 0.00 | 0.00 | 67 | 1018.6 |
| 20260903134533 | 69 | 200 | 2.0 | 8.0 | 0.00 | 0.00 | 0.00 | 65 | 1018.8 |
| 20260903134032 | 69 | 207 | 3.0 | 9.0 | 0.00 | 0.00 | 0.00 | 68 | 1018.9 |
| 20260903133534 | 69 | 300 | 4.0 | 9.0 | 0.00 | 0.00 | 0.00 | 67 | 1018.8 |
| 20260903133030 | 68 | 314 | 4.0 | 9.0 | 0.00 | 0.00 | 0.00 | 68 | 1018.8 |
| 20260903132528 | 67 | 207 | 3.0 | 7.0 | 0.00 | 0.00 | 0.00 | 68 | 1019.0 |
| 20260903132028 | 67 | 250 | 1.0 | 8.0 | 0.00 | 0.00 | 0.00 | 72 | 1019.1 |
| 20260903131529 | 67 | 188 | 3.0 | 10.0 | 0.00 | 0.00 | 0.00 | 70 | 1019.2 |
| 20260903131029 | 66 | 248 | 3.0 | 12.0 | 0.00 | 0.00 | 0.00 | 69 | 1019.2 |
| 20260903130529 | 66 | 152 | 3.0 | 12.0 | 0.00 | 0.00 | 0.00 | 69 | 1019.3 |
| 20260903130029 | 66 | 291 | 5.0 | 10.0 | 0.00 | 0.00 | 0.00 | 69 | 1019.4 |
| 20260903125528 | 67 | 241 | 3.0 | 8.0 | 0.00 | 0.00 | 0.00 | 70 | 1019.2 |
| 20260903125028 | 67 | 184 | 3.0 | 7.0 | 0.00 | 0.00 | 0.00 | 70 | 1019.1 |
| 20260903124527 | 67 | 141 | 2.0 | 5.0 | 0.00 | 0.00 | 0.00 | 71 | 1019.0 |
| 20260903124026 | 68 | 169 | 1.0 | 8.0 | 0.00 | 0.00 | 0.00 | 69 | 1019.3 |
| 20260903123530 | 68 | 222 | 2.0 | 10.0 | 0.00 | 0.00 | 0.00 | 68 | 1019.3 |
| 20260903123027 | 69 | 243 | 4.0 | 11.0 | 0.00 | 0.00 | 0.00 | 68 | 1019.4 |
| 20260903122527 | 69 | 227 | 2.0 | 10.0 | 0.00 | 0.00 | 0.00 | 74 | 1019.3 |
| 20260903122023 | 68 | 185 | 3.0 | 7.0 | 0.00 | 0.00 | 0.00 | 71 | 1019.4 |
| 20260903121530 | 68 | 228 | 1.0 | 8.0 | 0.00 | 0.00 | 0.00 | 72 | 1019.3 |
| 20260903121021 | 67 | 181 | 3.0 | 8.0 | 0.00 | 0.00 | 0.00 | 72 | 1019.3 |
| 20260903120520 | 66 | 134 | 2.0 | 8.0 | 0.00 | 0.00 | 0.00 | 73 | 1019.3 |
| 20260903120035 | 66 | 243 | 3.0 | 6.0 | 0.00 | 0.00 | 0.00 | 73 | 1019.3 |
| 20260903115516 | 65 | 293 | 2.0 | 8.0 | 0.00 | 0.00 | 0.00 | 75 | 1019.3 |
| 20260903115017 | 65 | 257 | 2.0 | 8.0 | 0.00 | 0.00 | 0.00 | 74 | 1019.4 |
| 20260903114516 | 65 | 190 | 1.0 | 8.0 | 0.00 | 0.00 | 0.00 | 74 | 1019.6 |
| 20260903114015 | 65 | 198 | 3.0 | 10.0 | 0.00 | 0.00 | 0.00 | 74 | 1019.7 |
| 20260903113515 | 65 | 113 | 4.0 | 10.0 | 0.00 | 0.00 | 0.00 | 73 | 1019.7 |
| 20260903113020 | 64 | 244 | 3.0 | 8.0 | 0.00 | 0.00 | 0.00 | 73 | 1019.9 |
| 20260903112515 | 65 | 218 | 4.0 | 8.0 | 0.00 | 0.00 | 0.00 | 73 | 1020.1 |
| 20260903112017 | 65 | 217 | 1.0 | 7.0 | 0.00 | 0.00 | 0.00 | 75 | 1019.9 |
| 20260903111515 | 64 | 248 | 1.0 | 7.0 | 0.00 | 0.00 | 0.00 | 75 | 1019.9 |
| 20260903111017 | 64 | 229 | 2.0 | 7.0 | 0.00 | 0.00 | 0.00 | 74 | 1019.8 |
| 20260903110513 | 64 | 212 | 3.0 | 8.0 | 0.00 | 0.00 | 0.00 | 73 | 1019.8 |
| 20260903110013 | 64 | 155 | 1.0 | 7.0 | 0.00 | 0.00 | 0.00 | 76 | 1019.7 |
| 20260903105512 | 64 | 209 | 1.0 | 7.0 | 0.00 | 0.00 | 0.00 | 76 | 1020.0 |
| 20260903105012 | 64 | 174 | 1.0 | 7.0 | 0.00 | 0.00 | 0.00 | 75 | 1020.1 |
| 20260903104512 | 64 | 195 | 2.0 | 8.0 | 0.00 | 0.00 | 0.00 | 76 | 1020.1 |
| 20260903104012 | 64 | 263 | 1.0 | 8.0 | 0.00 | 0.00 | 0.00 | 77 | 1020.1 |
| 20260903103510 | 64 | 227 | 2.0 | 7.0 | 0.00 | 0.00 | 0.00 | 76 | 1020.1 |
| 20260903103010 | 64 | 233 | 1.0 | 9.0 | 0.00 | 0.00 | 0.00 | 75 | 1020.3 |
| 20260903102510 | 64 | 190 | 3.0 | 9.0 | 0.00 | 0.00 | 0.00 | 74 | 1020.3 |
| 20260903102009 | 64 | 272 | 2.0 | 7.0 | 0.00 | 0.00 | 0.00 | 74 | 1020.4 |
| 20260903101520 | 64 | 290 | 2.0 | 7.0 | 0.00 | 0.00 | 0.00 | 73 | 1020.4 |
| 20260903101009 | 64 | 288 | 2.0 | 9.0 | 0.00 | 0.00 | 0.00 | 74 | 1020.4 |
| 20260903100509 | 64 | 231 | 2.0 | 8.0 | 0.00 | 0.00 | 0.00 | 74 | 1020.4 |
| 20260903100020 | 64 | 276 | 4.0 | 8.0 | 0.00 | 0.00 | 0.00 | 72 | 1020.5 |
| 20260903095507 | 65 | 256 | 3.0 | 9.0 | 0.00 | 0.00 | 0.00 | 73 | 1020.4 |
| 20260903095007 | 65 | 225 | 2.0 | 9.0 | 0.00 | 0.00 | 0.00 | 76 | 1020.5 |
| 20260903094514 | 64 | 229 | 2.0 | 8.0 | 0.00 | 0.00 | 0.00 | 76 | 1020.5 |
| 20260903094005 | 64 | 229 | 2.0 | 8.0 | 0.00 | 0.00 | 0.00 | 76 | 1020.6 |
| 20260903093507 | 64 | 164 | 3.0 | 6.0 | 0.00 | 0.00 | 0.00 | 75 | 1020.7 |
| 20260903093004 | 64 | 230 | 2.0 | 6.0 | 0.00 | 0.00 | 0.00 | 77 | 1020.6 |
| 20260903092506 | 63 | 221 | 2.0 | 8.0 | 0.00 | 0.00 | 0.00 | 76 | 1020.6 |
| 20260903092002 | 63 | 230 | 2.0 | 8.0 | 0.00 | 0.00 | 0.00 | 76 | 1020.7 |
| 20260903091502 | 63 | 244 | 2.0 | 8.0 | 0.00 | 0.00 | 0.00 | 75 | 1020.6 |
| 20260903091003 | 63 | 265 | 3.0 | 9.0 | 0.00 | 0.00 | 0.00 | 75 | 1020.6 |
| 20260903090502 | 64 | 209 | 2.0 | 9.0 | 0.00 | 0.00 | 0.00 | 78 | 1020.7 |
| 20260903090100 | 63 | 241 | 2.0 | 9.0 | 0.00 | 0.00 | 0.00 | 79 | 1020.6 |
| 20260903085559 | 63 | 259 | 1.0 | 7.0 | 0.00 | 0.00 | 0.00 | 81 | 1020.6 |
| 20260903085059 | 63 | 213 | 2.0 | 8.0 | 0.00 | 0.00 | 0.00 | 79 | 1020.7 |
| 20260903084601 | 63 | 148 | 3.0 | 8.0 | 0.00 | 0.00 | 0.00 | 80 | 1020.8 |
| 20260903084058 | 63 | 226 | 2.0 | 6.0 | 0.00 | 0.00 | 0.00 | 80 | 1020.8 |
| 20260903083557 | 62 | 208 | 4.0 | 6.0 | 0.00 | 0.00 | 0.00 | 79 | 1020.8 |
| 20260903083057 | 62 | 185 | 3.0 | 8.0 | 0.00 | 0.00 | 0.00 | 79 | 1020.7 |
| 20260903082556 | 62 | 209 | 1.0 | 8.0 | 0.00 | 0.00 | 0.00 | 80 | 1020.6 |
| 20260903082056 | 62 | 229 | 3.0 | 8.0 | 0.00 | 0.00 | 0.00 | 81 | 1020.7 |
| 20260903081556 | 62 | 209 | 2.0 | 6.0 | 0.00 | 0.00 | 0.00 | 81 | 1020.7 |
| 20260903081054 | 62 | 261 | 3.0 | 8.0 | 0.00 | 0.00 | 0.00 | 80 | 1020.6 |
| 20260903080554 | 62 | 263 | 3.0 | 8.0 | 0.00 | 0.00 | 0.00 | 79 | 1020.6 |
| 20260903080056 | 62 | 284 | 1.0 | 7.0 | 0.00 | 0.00 | 0.00 | 82 | 1020.5 |
| 20260903075554 | 62 | 143 | 0.0 | 7.0 | 0.00 | 0.00 | 0.00 | 82 | 1020.6 |
| 20260903075051 | 61 | 294 | 0.0 | 7.0 | 0.00 | 0.00 | 0.00 | 82 | 1020.6 |
| 20260903074550 | 61 | 221 | 0.0 | 7.0 | 0.00 | 0.00 | 0.00 | 84 | 1020.7 |
| 20260903074050 | 61 | 256 | 2.0 | 7.0 | 0.00 | 0.00 | 0.00 | 83 | 1020.8 |
| 20260903073550 | 61 | 175 | 2.0 | 7.0 | 0.00 | 0.00 | 0.00 | 83 | 1020.8 |
| 20260903073050 | 61 | 221 | 1.0 | 4.0 | 0.00 | 0.00 | 0.00 | 83 | 1020.9 |
| 20260903072548 | 60 | 212 | 0.0 | 0.0 | 0.00 | 0.00 | 0.00 | 86 | 1020.8 |
| 20260903072047 | 60 | 164 | 0.0 | 0.0 | 0.00 | 0.00 | 0.00 | 86 | 1020.8 |
| 20260903071557 | 59 | 199 | 0.0 | 0.0 | 0.00 | 0.00 | 0.00 | 84 | 1020.7 |
| 20260903071044 | 59 | 187 | 0.0 | 0.0 | 0.00 | 0.00 | 0.00 | 84 | 1020.8 |
| 20260903070543 | 59 | 173 | 0.0 | 0.0 | 0.00 | 0.00 | 0.00 | 85 | 1020.9 |
| 20260903070043 | 59 | 167 | 0.0 | 0.0 | 0.00 | 0.00 | 0.00 | 84 | 1020.8 |
| 20260903065548 | 59 | 167 | 0.0 | 0.0 | 0.00 | 0.00 | 0.00 | 83 | 1020.8 |
| 20260903065041 | 60 | 141 | 0.0 | 0.0 | 0.00 | 0.00 | 0.00 | 83 | 1021.0 |
| 20260903064541 | 60 | 140 | 0.0 | 0.0 | 0.00 | 0.00 | 0.00 | 84 | 1020.9 |
| 20260903064039 | 60 | 126 | 0.0 | 0.0 | 0.00 | 0.00 | 0.00 | 84 | 1020.9 |
| 20260903063538 | 59 | 126 | 0.0 | 0.0 | 0.00 | 0.00 | 0.00 | 84 | 1021.1 |
| 20260903063037 | 59 | 126 | 0.0 | 0.0 | 0.00 | 0.00 | 0.00 | 84 | 1021.0 |
| 20260903062536 | 59 | 124 | 0.0 | 0.0 | 0.00 | 0.00 | 0.00 | 85 | 1021.0 |
| 20260903062037 | 59 | 124 | 0.0 | 0.0 | 0.00 | 0.00 | 0.00 | 87 | 1021.0 |
| 20260903061534 | 58 | 124 | 0.0 | 0.0 | 0.00 | 0.00 | 0.00 | 87 | 1021.0 |
| 20260903061036 | 58 | 124 | 0.0 | 0.0 | 0.00 | 0.00 | 0.00 | 89 | 1020.9 |
| 20260903060531 | 57 | 124 | 0.0 | 0.0 | 0.00 | 0.00 | 0.00 | 89 | 1020.9 |
| 20260903060030 | 57 | 124 | 0.0 | 0.0 | 0.00 | 0.00 | 0.00 | 90 | 1020.9 |
| 20260903055529 | 56 | 124 | 0.0 | 0.0 | 0.00 | 0.00 | 0.00 | 91 | 1020.8 |
| 20260903055128 | 55 | 124 | 0.0 | 0.0 | 0.00 | 0.00 | 0.00 | 91 | 1020.8 |
| 20260903054529 | 55 | 124 | 0.0 | 0.0 | 0.00 | 0.00 | 0.00 | 91 | 1020.9 |
| 20260903054027 | 55 | 124 | 0.0 | 0.0 | 0.00 | 0.00 | 0.00 | 91 | 1020.9 |
| 20260903053529 | 55 | 124 | 0.0 | 0.0 | 0.00 | 0.00 | 0.00 | 91 | 1021.0 |
| 20260903053024 | 55 | 124 | 0.0 | 0.0 | 0.00 | 0.00 | 0.00 | 91 | 1020.9 |
| 20260903052524 | 55 | 124 | 0.0 | 0.0 | 0.00 | 0.00 | 0.00 | 91 | 1021.0 |
| 20260903052024 | 55 | 124 | 0.0 | 0.0 | 0.00 | 0.00 | 0.00 | 91 | 1021.0 |
| 20260903051540 | 55 | 124 | 0.0 | 0.0 | 0.00 | 0.00 | 0.00 | 90 | 1021.1 |
| 20260903051028 | 55 | 124 | 0.0 | 0.0 | 0.00 | 0.00 | 0.00 | 90 | 1021.0 |
| 20260903050522 | 55 | 124 | 0.0 | 0.0 | 0.00 | 0.00 | 0.00 | 90 | 1021.0 |
| 20260903050022 | 55 | 124 | 0.0 | 0.0 | 0.00 | 0.00 | 0.00 | 89 | 1021.1 |
| 20260903045522 | 55 | 124 | 0.0 | 0.0 | 0.00 | 0.00 | 0.00 | 89 | 1020.9 |
| 20260903045026 | 55 | 124 | 0.0 | 0.0 | 0.00 | 0.00 | 0.00 | 89 | 1021.0 |
| 20260903044521 | 55 | 124 | 0.0 | 0.0 | 0.00 | 0.00 | 0.00 | 89 | 1020.8 |
| 20260903044020 | 55 | 124 | 0.0 | 0.0 | 0.00 | 0.00 | 0.00 | 89 | 1020.8 |
| 20260903043519 | 55 | 124 | 0.0 | 0.0 | 0.00 | 0.00 | 0.00 | 90 | 1021.0 |
| 20260903043045 | 55 | 125 | 0.0 | 0.0 | 0.00 | 0.00 | 0.00 | 90 | 1021.1 |
| 20260903042519 | 55 | 126 | 0.0 | 0.0 | 0.00 | 0.00 | 0.00 | 90 | 1021.0 |
| 20260903042021 | 55 | 125 | 0.0 | 0.0 | 0.00 | 0.00 | 0.00 | 90 | 1021.0 |
| 20260903041521 | 55 | 126 | 0.0 | 0.0 | 0.00 | 0.00 | 0.00 | 90 | 1020.9 |
| 20260903041017 | 55 | 126 | 0.0 | 0.0 | 0.00 | 0.00 | 0.00 | 90 | 1021.0 |
| 20260903040517 | 55 | 126 | 0.0 | 0.0 | 0.00 | 0.00 | 0.00 | 91 | 1020.9 |
| 20260903040018 | 55 | 126 | 0.0 | 0.0 | 0.00 | 0.00 | 0.00 | 91 | 1020.9 |
| 20260903035517 | 55 | 129 | 0.0 | 0.0 | 0.00 | 0.00 | 0.00 | 91 | 1021.0 |
| 20260903035017 | 55 | 129 | 0.0 | 0.0 | 0.00 | 0.00 | 0.00 | 92 | 1020.9 |
| 20260903034529 | 55 | 121 | 0.0 | 0.0 | 0.00 | 0.00 | 0.00 | 92 | 1020.8 |
| 20260903034017 | 55 | 121 | 0.0 | 0.0 | 0.00 | 0.00 | 0.00 | 92 | 1020.8 |
| 20260903033518 | 55 | 121 | 0.0 | 0.0 | 0.00 | 0.00 | 0.00 | 92 | 1020.7 |
| 20260903033019 | 55 | 121 | 0.0 | 0.0 | 0.00 | 0.00 | 0.00 | 92 | 1020.7 |
| 20260903032515 | 55 | 121 | 0.0 | 0.0 | 0.00 | 0.00 | 0.00 | 92 | 1020.7 |
| 20260903032017 | 55 | 121 | 0.0 | 0.0 | 0.00 | 0.00 | 0.00 | 91 | 1020.7 |
| 20260903031515 | 55 | 121 | 0.0 | 0.0 | 0.00 | 0.00 | 0.00 | 91 | 1020.7 |
| 20260903031015 | 55 | 121 | 0.0 | 0.0 | 0.00 | 0.00 | 0.00 | 91 | 1020.7 |
| 20260903030513 | 55 | 121 | 0.0 | 0.0 | 0.00 | 0.00 | 0.00 | 91 | 1020.6 |
| 20260903030013 | 55 | 121 | 0.0 | 0.0 | 0.00 | 0.00 | 0.00 | 91 | 1020.5 |
| 20260903025514 | 55 | 121 | 0.0 | 0.0 | 0.00 | 0.00 | 0.00 | 91 | 1020.5 |
| 20260903025013 | 55 | 121 | 0.0 | 0.0 | 0.00 | 0.00 | 0.00 | 91 | 1020.6 |
| 20260903024513 | 55 | 121 | 0.0 | 0.0 | 0.00 | 0.00 | 0.00 | 92 | 1020.7 |
| 20260903024013 | 55 | 121 | 0.0 | 0.0 | 0.00 | 0.00 | 0.00 | 92 | 1020.6 |
| 20260903023512 | 55 | 130 | 0.0 | 0.0 | 0.00 | 0.00 | 0.00 | 91 | 1020.6 |
| 20260903023012 | 55 | 130 | 0.0 | 0.0 | 0.00 | 0.00 | 0.00 | 91 | 1020.6 |
| 20260903022511 | 55 | 130 | 0.0 | 0.0 | 0.00 | 0.00 | 0.00 | 91 | 1020.5 |
| 20260903022011 | 55 | 130 | 0.0 | 0.0 | 0.00 | 0.00 | 0.00 | 91 | 1020.5 |
| 20260903021514 | 55 | 130 | 0.0 | 0.0 | 0.00 | 0.00 | 0.00 | 91 | 1020.6 |
| 20260903021012 | 56 | 130 | 0.0 | 0.0 | 0.00 | 0.00 | 0.00 | 91 | 1020.6 |
| 20260903020511 | 56 | 130 | 0.0 | 0.0 | 0.00 | 0.00 | 0.00 | 90 | 1020.7 |
| 20260903020013 | 56 | 130 | 0.0 | 0.0 | 0.00 | 0.00 | 0.00 | 90 | 1020.7 |
| 20260903015510 | 56 | 130 | 0.0 | 0.0 | 0.00 | 0.00 | 0.00 | 90 | 1020.7 |
| 20260903015009 | 56 | 130 | 0.0 | 0.0 | 0.00 | 0.00 | 0.00 | 91 | 1020.6 |
| 20260903014516 | 56 | 130 | 0.0 | 0.0 | 0.00 | 0.00 | 0.00 | 91 | 1020.6 |
| 20260903014012 | 56 | 130 | 0.0 | 0.0 | 0.00 | 0.00 | 0.00 | 91 | 1020.5 |
| 20260903013511 | 56 | 130 | 0.0 | 0.0 | 0.00 | 0.00 | 0.00 | 91 | 1020.5 |
| 20260903013010 | 56 | 130 | 0.0 | 0.0 | 0.00 | 0.00 | 0.00 | 91 | 1020.6 |
| 20260903012508 | 56 | 130 | 0.0 | 0.0 | 0.00 | 0.00 | 0.00 | 91 | 1020.6 |
| 20260903012009 | 56 | 131 | 0.0 | 0.0 | 0.00 | 0.00 | 0.00 | 91 | 1020.6 |
| 20260903011514 | 56 | 111 | 0.0 | 0.0 | 0.00 | 0.00 | 0.00 | 90 | 1020.6 |
| 20260903011009 | 56 | 111 | 0.0 | 0.0 | 0.00 | 0.00 | 0.00 | 90 | 1020.5 |
| 20260903010507 | 56 | 111 | 0.0 | 0.0 | 0.00 | 0.00 | 0.00 | 90 | 1020.6 |
| 20260903010007 | 56 | 111 | 0.0 | 0.0 | 0.00 | 0.00 | 0.00 | 91 | 1020.6 |
| 20260903005507 | 56 | 111 | 0.0 | 0.0 | 0.00 | 0.00 | 0.00 | 91 | 1020.7 |
| 20260903005008 | 56 | 111 | 0.0 | 0.0 | 0.00 | 0.00 | 0.00 | 92 | 1020.6 |
| 20260903004508 | 56 | 111 | 0.0 | 0.0 | 0.00 | 0.00 | 0.00 | 92 | 1020.6 |
| 20260903004007 | 56 | 111 | 0.0 | 0.0 | 0.00 | 0.00 | 0.00 | 92 | 1020.7 |
| 20260903003507 | 55 | 111 | 0.0 | 0.0 | 0.00 | 0.00 | 0.00 | 92 | 1020.5 |
| 20260903003009 | 55 | 111 | 0.0 | 0.0 | 0.00 | 0.00 | 0.00 | 92 | 1020.6 |
| 20260903002506 | 55 | 111 | 0.0 | 0.0 | 0.00 | 0.00 | 0.00 | 92 | 1020.6 |
| 20260903002006 | 55 | 111 | 0.0 | 0.0 | 0.00 | 0.00 | 0.00 | 92 | 1020.7 |
| 20260903001506 | 55 | 111 | 0.0 | 0.0 | 0.00 | 0.00 | 0.00 | 92 | 1020.5 |
| 20260903001006 | 55 | 111 | 0.0 | 0.0 | 0.00 | 0.00 | 0.00 | 92 | 1020.6 |
| 20260903000504 | 55 | 111 | 0.0 | 0.0 | 0.00 | 0.00 | 0.00 | 92 | 1020.6 |
| 20260903000004 | 56 | 111 | 0.0 | 0.0 | 0.00 | 0.00 | 0.00 | 92 | 1020.6 |
| 20260902235504 | 56 | 111 | 0.0 | 0.0 | 0.00 | 0.00 | 0.00 | 92 | 1020.6 |
| 20260902235006 | 56 | 111 | 0.0 | 0.0 | 0.00 | 0.00 | 0.00 | 92 | 1020.6 |
| 20260902234502 | 56 | 111 | 0.0 | 0.0 | 0.00 | 0.00 | 0.00 | 92 | 1020.7 |
| 20260902234002 | 56 | 111 | 0.0 | 0.0 | 0.00 | 0.00 | 0.00 | 92 | 1020.6 |
| 20260902233505 | 56 | 111 | 0.0 | 0.0 | 0.00 | 0.00 | 0.00 | 92 | 1020.6 |
| 20260902233002 | 56 | 111 | 0.0 | 0.0 | 0.00 | 0.00 | 0.00 | 92 | 1020.6 |
| 20260902232503 | 56 | 111 | 0.0 | 0.0 | 0.00 | 0.00 | 0.00 | 92 | 1020.6 |
| 20260902232001 | 56 | 111 | 0.0 | 0.0 | 0.00 | 0.00 | 0.00 | 92 | 1020.6 |
| 20260902231501 | 56 | 111 | 0.0 | 0.0 | 0.00 | 0.00 | 0.00 | 92 | 1020.5 |
| 20260902231002 | 56 | 111 | 0.0 | 0.0 | 0.00 | 0.00 | 0.00 | 92 | 1020.5 |
| 20260902230603 | 56 | 111 | 0.0 | 0.0 | 0.00 | 0.00 | 0.00 | 92 | 1020.6 |
| 20260902230106 | 56 | 111 | 0.0 | 0.0 | 0.00 | 0.00 | 0.00 | 92 | 1020.6 |
| 20260902225559 | 56 | 111 | 0.0 | 0.0 | 0.00 | 0.00 | 0.00 | 92 | 1020.7 |
| 20260902225058 | 56 | 111 | 0.0 | 0.0 | 0.00 | 0.00 | 0.00 | 93 | 1020.6 |
| 20260902224611 | 56 | 111 | 0.0 | 0.0 | 0.00 | 0.00 | 0.00 | 92 | 1020.6 |
| 20260902224058 | 56 | 111 | 0.0 | 0.0 | 0.00 | 0.00 | 0.00 | 93 | 1020.7 |
| 20260902223558 | 56 | 111 | 0.0 | 0.0 | 0.00 | 0.00 | 0.00 | 92 | 1020.7 |
| 20260902223058 | 56 | 111 | 0.0 | 0.0 | 0.00 | 0.00 | 0.00 | 92 | 1020.7 |
| 20260902222559 | 56 | 111 | 0.0 | 0.0 | 0.00 | 0.00 | 0.00 | 92 | 1020.8 |
| 20260902222058 | 56 | 111 | 0.0 | 0.0 | 0.00 | 0.00 | 0.00 | 91 | 1020.8 |
| 20260902221556 | 56 | 111 | 0.0 | 0.0 | 0.00 | 0.00 | 0.00 | 91 | 1020.7 |
| 20260902221055 | 56 | 111 | 0.0 | 0.0 | 0.00 | 0.00 | 0.00 | 91 | 1020.7 |
| 20260902220554 | 57 | 111 | 0.0 | 0.0 | 0.00 | 0.00 | 0.00 | 91 | 1020.7 |
| 20260902220057 | 57 | 111 | 0.0 | 0.0 | 0.00 | 0.00 | 0.00 | 91 | 1020.9 |
| 20260902215554 | 57 | 111 | 0.0 | 0.0 | 0.00 | 0.00 | 0.00 | 90 | 1020.8 |
| 20260902215052 | 57 | 111 | 0.0 | 0.0 | 0.00 | 0.00 | 0.00 | 90 | 1020.7 |
| 20260902214556 | 58 | 111 | 0.0 | 0.0 | 0.00 | 0.00 | 0.00 | 89 | 1020.8 |
| 20260902214053 | 58 | 111 | 0.0 | 0.0 | 0.00 | 0.00 | 0.00 | 89 | 1020.8 |
| 20260902213552 | 58 | 111 | 0.0 | 0.0 | 0.00 | 0.00 | 0.00 | 89 | 1020.9 |